Location: Barcelona
(41.3830°N, 2.1830°E)
Time: 13:10:31
(UTC+01:00)

ISS - Pass Details

Date: 22 March 2019
Orbit: 408 x 411 km, 51.6° (Epoch: 24 March)

Event Time Altitude Azimuth Distance (km) Brightness Sun altitude
Rises 21:08:22 0° 253° (WSW) 2,327 0.8 -23.3°
Reaches altitude 10° 21:10:32 10° 262° (W) 1,469 -0.2 -23.6°
Enters shadow 21:13:14 36° 313° (NW) 666 -2.3 -24.1°
